Flag for U.S.A. Weather past 2 weeks in Lubbock, Texas, U.S.A.

Now
24 °F

Ice fog.


Feels Like: 17 °F
Forecast: 13 / 30 °F
Wind: 6 mph from Southeast

Location: Lubbock International Airport

Current Time: Feb 28, 2015 at 5:50:44 PM

Latest Report: Feb 28, 2015 at 4:53 PM


Visibility: 1 mi

Pressure: 30.19 "Hg

Humidity: 91%

Dew point: 22 °F

Location of LubbockLocation

Historic Weather in Lubbock — Graph

°F

Lubbock temperature yesterday

Maximum temperature yesterday: 21 °F (at 12:53 AM)
Minimum temperature yesterday: 13 °F (at 9:53 PM)
Average temperature yesterday: 15 °F

Past Weeks' High & Low Weather Summary

 TemperatureHumidityPressure
High79 °F (Feb 20, 1:53 PM)96% (Feb 17, 4:53 AM)30.61 "Hg (Feb 17, 4:53 AM)
Low13 °F (Feb 27, 9:53 PM)9% (Feb 20, 2:53 PM)29.54 "Hg (Feb 20, 3:53 PM)
Average38 °F66%30.10 "Hg
* Reported Feb 13 4:53 PM — Feb 28 4:53 PM, Lubbock, Weather by CustomWeather, © 2015

Note: Actual official high and low records may vary slightly from our data, if they occured in-between our weather recording intervals... More about our weather records

Advertising

Lubbock weather history for previous 24 hours

 ConditionsComfort  
Time TempWeatherWind HumidityBarometerVisibility
4:53 PM
Sat, Feb 28
24 °FIce fog.6 mph91%30.19 "Hg1 mi
3:53 PM23 °FIce fog.8 mph92%30.19 "Hg2 mi
2:53 PM22 °FIce fog.8 mph92%30.20 "Hg3 mi
1:53 PM21 °FIce fog.8 mph92%30.22 "Hg4 mi
12:53 PM20 °FIce fog.8 mph89%30.25 "Hg2 mi
11:53 AM20 °FIce fog.7 mph89%30.29 "Hg2 mi
10:53 AM18 °FLight freezing rain. Ice fog.6 mph92%30.31 "Hg2 mi
9:53 AM17 °FLight snow. Ice fog.5 mph92%30.31 "Hg1 mi
8:53 AM16 °FLight snow. Ice fog.8 mph92%30.29 "Hg2 mi
8:00 AM15 °FLight freezing rain. Low clouds.7 mph91%30.18 "Hg2 mi
6:53 AM15 °FLight freezing rain. Low clouds.8 mph91%30.28 "Hg1 mi
5:53 AM14 °FLight freezing rain. Low clouds.9 mph92%30.27 "Hg1 mi
4:53 AM14 °FLight freezing rain. Low clouds.9 mph92%30.28 "Hg1 mi
3:53 AM14 °FLight freezing rain. Low clouds.8 mph92%30.27 "Hg1 mi
2:53 AM14 °FLight freezing rain. Low clouds.9 mph92%30.29 "Hg1 mi
1:53 AM13 °FLight freezing rain. Low clouds.7 mph96%30.32 "Hg1 mi
12:53 AM13 °FLight freezing rain. Low clouds.7 mph96%30.32 "Hg1 mi
11:53 PM
Fri, Feb 27
13 °FLight freezing rain. Low clouds.10 mph96%30.33 "Hg2 mi
10:59 PM13 °FLight freezing rain. Low clouds.10 mph96%30.23 "Hg1 mi
9:53 PM13 °FLight freezing rain. Mostly cloudy.10 mph92%30.34 "Hg5 mi
8:53 PM14 °FLight snow. Overcast.10 mph84%30.32 "Hg8 mi
7:53 PM14 °FLight snow. Overcast.10 mph87%30.33 "Hg8 mi
6:53 PM15 °FLight snow. Overcast.12 mph80%30.32 "Hg5 mi
5:53 PM15 °FLight snow. Overcast.13 mph80%30.32 "Hg6 mi
Weather by CustomWeather, © 2015

See weather overviewHow to use our weather pages